ANZ567 NZAA-NZCH

Flight info

Callsign ANZ567
Flight time 1h 4m
Altitude 36000
Route IGBAT H384 NP H252 NS Y288 IPRAK
Aircraft A320/M-SDE1E2E3GIRW/LB1

Departure

Time 2026-05-04 07:14
Airport Auckland International Airport (NZAA)

Arrival

Time 2026-05-04 08:19
Airport Christchurch International Airport (NZCH)
Time Latitude Longitude Altitude Speed Heading
2026-05-04 06:36 -37.00736 174.79010 30 ft 0 kts 341°
2026-05-04 07:05 -37.00747 174.79015 29 ft 4 kts 343°
2026-05-04 07:05 -37.00773 174.79023 30 ft 4 kts 347°
2026-05-04 07:06 -37.00807 174.79045 28 ft 0 kts 251°
2026-05-04 07:09 -37.00812 174.79027 31 ft 6 kts 251°
2026-05-04 07:10 -37.00830 174.78962 25 ft 9 kts 251°
2026-05-04 07:10 -37.00854 174.78876 26 ft 12 kts 251°
2026-05-04 07:12 -37.01122 174.77855 26 ft 17 kts 251°
2026-05-04 07:12 -37.01152 174.77752 26 ft 9 kts 237°
2026-05-04 07:12 -37.01217 174.77746 27 ft 11 kts 161°
2026-05-04 07:12 -37.01284 174.77774 28 ft 9 kts 161°
2026-05-04 07:13 -37.01337 174.77797 30 ft 9 kts 161°
2026-05-04 07:13 -37.01401 174.77826 28 ft 9 kts 151°
2026-05-04 07:13 -37.01408 174.77888 26 ft 4 kts 72°
2026-05-04 07:14 -37.00815 174.80030 165 ft 159 kts 72°
2026-05-04 07:14 -37.00456 174.81339 900 ft 157 kts 72°
2026-05-04 07:15 -37.00439 174.82678 1575 ft 159 kts 112°
2026-05-04 07:15 -37.01219 174.83754 1979 ft 183 kts 150°
2026-05-04 07:15 -37.02553 174.83999 2195 ft 212 kts 188°
2026-05-04 07:15 -37.03966 174.83150 2465 ft 241 kts 216°
2026-05-04 07:16 -37.05320 174.81753 2916 ft 262 kts 220°
2026-05-04 07:16 -37.06721 174.80222 3577 ft 277 kts 220°
2026-05-04 07:16 -37.08237 174.78574 3956 ft 301 kts 220°
2026-05-04 07:16 -37.09882 174.76792 4369 ft 321 kts 220°
2026-05-04 07:17 -37.11585 174.74940 5077 ft 328 kts 220°
2026-05-04 07:17 -37.13510 174.73373 5787 ft 333 kts 201°
2026-05-04 07:17 -37.15681 174.72527 6518 ft 336 kts 193°
2026-05-04 07:17 -37.17952 174.71741 7245 ft 340 kts 193°
2026-05-04 07:18 -37.20248 174.70956 7960 ft 344 kts 193°
2026-05-04 07:18 -37.22576 174.70166 8683 ft 348 kts 193°
2026-05-04 07:18 -37.24930 174.69368 9412 ft 352 kts 193°
2026-05-04 07:18 -37.27310 174.68557 10152 ft 355 kts 194°
2026-05-04 07:19 -37.29706 174.67735 10827 ft 359 kts 194°
2026-05-04 07:19 -37.32131 174.66899 11482 ft 362 kts 194°
2026-05-04 07:19 -37.34583 174.66053 12144 ft 366 kts 194°
2026-05-04 07:19 -37.37045 174.65200 12794 ft 369 kts 194°
2026-05-04 07:20 -37.39534 174.64342 13439 ft 373 kts 194°
2026-05-04 07:20 -37.42047 174.63479 14083 ft 376 kts 194°
2026-05-04 07:20 -37.44584 174.62608 14685 ft 379 kts 194°
2026-05-04 07:20 -37.47138 174.61730 15240 ft 383 kts 194°
2026-05-04 07:22 -37.65632 174.55316 19133 ft 405 kts 195°
2026-05-04 07:22 -37.68355 174.54364 19673 ft 408 kts 195°
2026-05-04 07:23 -37.71104 174.53405 20227 ft 411 kts 195°
2026-05-04 07:23 -37.73863 174.52445 20779 ft 413 kts 195°
2026-05-04 07:23 -37.76653 174.51479 21308 ft 416 kts 195°
2026-05-04 07:23 -37.79453 174.50507 21809 ft 418 kts 195°
2026-05-04 07:24 -37.82266 174.49529 22294 ft 421 kts 195°
2026-05-04 07:24 -37.85102 174.48542 22763 ft 423 kts 195°
2026-05-04 07:24 -37.87951 174.47551 23227 ft 426 kts 195°
2026-05-04 07:24 -37.90815 174.46551 23681 ft 428 kts 195°
2026-05-04 07:25 -37.93693 174.45543 24130 ft 430 kts 195°
2026-05-04 07:26 -38.14238 174.38311 26578 ft 445 kts 195°
2026-05-04 07:27 -38.17231 174.37262 26914 ft 447 kts 195°
2026-05-04 07:27 -38.20233 174.36208 27261 ft 449 kts 195°
2026-05-04 07:27 -38.23251 174.35143 27587 ft 451 kts 195°
2026-05-04 07:27 -38.26279 174.34074 27914 ft 453 kts 195°
2026-05-04 07:28 -38.29321 174.33000 28237 ft 455 kts 195°
2026-05-04 07:28 -38.32372 174.31924 28684 ft 453 kts 195°
2026-05-04 07:28 -38.35405 174.30852 29167 ft 452 kts 195°
2026-05-04 07:28 -38.38428 174.29778 29642 ft 451 kts 195°
2026-05-04 07:29 -38.41443 174.28704 30121 ft 450 kts 195°
2026-05-04 07:29 -38.44459 174.27633 30591 ft 449 kts 195°
2026-05-04 07:29 -38.47464 174.26564 31002 ft 447 kts 195°
2026-05-04 07:29 -38.50458 174.25497 31410 ft 446 kts 195°
2026-05-04 07:30 -38.53447 174.24433 31809 ft 445 kts 195°
2026-05-04 07:30 -38.56429 174.23367 32214 ft 444 kts 195°
2026-05-04 07:30 -38.59138 174.22399 32585 ft 443 kts 195°
2026-05-04 07:30 -38.62104 174.21337 33006 ft 442 kts 195°
2026-05-04 07:31 -38.65070 174.20276 33435 ft 441 kts 195°
2026-05-04 07:31 -38.68015 174.19225 33856 ft 439 kts 195°
2026-05-04 07:33 -38.88478 174.11899 36184 ft 434 kts 196°
2026-05-04 07:33 -38.91381 174.10851 36452 ft 434 kts 196°
2026-05-04 07:33 -38.94295 174.09795 36557 ft 436 kts 196°
2026-05-04 07:33 -38.97234 174.08732 36586 ft 442 kts 196°
2026-05-04 07:34 -39.03210 174.06583 36575 ft 447 kts 195°
2026-05-04 07:34 -39.09166 174.04437 36574 ft 448 kts 195°
2026-05-04 07:35 -39.15167 174.02265 36575 ft 447 kts 196°
2026-05-04 07:35 -39.21157 174.00088 36571 ft 447 kts 196°
2026-05-04 07:36 -39.27139 173.97914 36581 ft 447 kts 195°
2026-05-04 07:38 -39.51064 173.89175 36574 ft 446 kts 195°
2026-05-04 07:38 -39.57039 173.86979 36567 ft 445 kts 195°
2026-05-04 07:39 -39.63010 173.84791 36574 ft 445 kts 195°
2026-05-04 07:39 -39.68968 173.82602 36568 ft 445 kts 195°
2026-05-04 07:40 -39.74936 173.80396 36566 ft 445 kts 195°
2026-05-04 07:40 -39.80887 173.78192 36564 ft 445 kts 195°
2026-05-04 07:41 -39.86836 173.75997 36558 ft 445 kts 195°
2026-05-04 07:41 -39.92792 173.73784 36557 ft 445 kts 195°
2026-05-04 07:42 -39.98738 173.71575 36557 ft 444 kts 196°
2026-05-04 07:42 -40.04691 173.69357 36561 ft 444 kts 196°
2026-05-04 07:43 -40.10642 173.67143 36560 ft 444 kts 195°
2026-05-04 07:43 -40.16588 173.64931 36558 ft 444 kts 196°
2026-05-04 07:44 -40.22526 173.62704 36552 ft 444 kts 196°
2026-05-04 07:44 -40.28463 173.60478 36549 ft 444 kts 196°
2026-05-04 07:45 -40.34402 173.58251 36552 ft 443 kts 196°
2026-05-04 07:45 -40.40334 173.56016 36553 ft 443 kts 196°
2026-05-04 07:46 -40.46264 173.53780 36545 ft 443 kts 196°
2026-05-04 07:46 -40.51193 173.51922 36542 ft 443 kts 196°
2026-05-04 07:47 -40.57122 173.49679 36546 ft 443 kts 196°
2026-05-04 07:49 -40.80831 173.40671 36543 ft 443 kts 196°
2026-05-04 07:49 -40.86795 173.38398 36535 ft 443 kts 196°
2026-05-04 07:50 -40.92509 173.36211 36540 ft 443 kts 196°
2026-05-04 07:50 -40.98437 173.33937 36534 ft 443 kts 196°
2026-05-04 07:51 -41.04371 173.31659 36542 ft 443 kts 196°
2026-05-04 07:51 -41.10296 173.29387 36549 ft 443 kts 196°
2026-05-04 07:52 -41.16225 173.27105 36547 ft 443 kts 196°
2026-05-04 07:52 -41.22115 173.24828 36550 ft 443 kts 196°
2026-05-04 07:54 -41.45798 173.15718 36548 ft 442 kts 196°
2026-05-04 07:55 -41.51700 173.13450 36548 ft 441 kts 196°
2026-05-04 07:55 -41.57618 173.11168 36550 ft 441 kts 196°
2026-05-04 07:56 -41.63513 173.08896 36539 ft 441 kts 196°
2026-05-04 07:56 -41.69406 173.06617 36542 ft 441 kts 196°
2026-05-04 07:57 -41.75266 173.04348 36539 ft 440 kts 196°
2026-05-04 07:57 -41.81197 173.02056 36370 ft 440 kts 196°
2026-05-04 07:58 -41.84143 173.00910 36119 ft 440 kts 196°
2026-05-04 07:58 -41.87073 172.99766 35869 ft 439 kts 196°
2026-05-04 07:58 -41.90012 172.98619 35626 ft 439 kts 196°
2026-05-04 07:58 -41.92961 172.97467 35378 ft 440 kts 196°
2026-05-04 07:59 -41.95904 172.96318 35066 ft 440 kts 196°
2026-05-04 07:59 -41.98865 172.95158 34184 ft 445 kts 196°
2026-05-04 07:59 -42.01848 172.93988 33291 ft 448 kts 196°
2026-05-04 07:59 -42.04854 172.92811 32379 ft 451 kts 196°
2026-05-04 08:00 -42.07873 172.91630 31511 ft 454 kts 196°
2026-05-04 08:00 -42.10911 172.90443 30531 ft 458 kts 196°
2026-05-04 08:00 -42.14022 172.89224 29527 ft 459 kts 196°
2026-05-04 08:02 -42.34587 172.81112 25289 ft 427 kts 196°
2026-05-04 08:02 -42.37434 172.79988 24689 ft 425 kts 196°
2026-05-04 08:02 -42.40266 172.78872 24078 ft 422 kts 196°
2026-05-04 08:03 -42.43078 172.77763 23410 ft 419 kts 196°
2026-05-04 08:03 -42.45868 172.76659 22841 ft 415 kts 196°
2026-05-04 08:03 -42.48624 172.75561 22278 ft 412 kts 197°
2026-05-04 08:03 -42.51358 172.74469 21740 ft 408 kts 197°
2026-05-04 08:04 -42.54079 172.73385 21206 ft 406 kts 197°
2026-05-04 08:04 -42.56784 172.72306 20695 ft 404 kts 197°
2026-05-04 08:04 -42.59469 172.71235 20193 ft 402 kts 197°
2026-05-04 08:04 -42.62153 172.70163 19686 ft 400 kts 197°
2026-05-04 08:05 -42.64822 172.69095 19183 ft 399 kts 197°
2026-05-04 08:05 -42.67479 172.68033 18635 ft 398 kts 197°
2026-05-04 08:05 -42.70124 172.66979 18081 ft 395 kts 197°
2026-05-04 08:05 -42.72757 172.65929 17539 ft 392 kts 197°
2026-05-04 08:06 -42.75364 172.64884 16992 ft 389 kts 197°
2026-05-04 08:06 -42.77952 172.63846 16436 ft 386 kts 198°
2026-05-04 08:06 -42.80520 172.62817 15875 ft 384 kts 198°
2026-05-04 08:06 -42.83076 172.61790 15312 ft 381 kts 198°
2026-05-04 08:08 -43.00379 172.54758 10824 ft 351 kts 198°
2026-05-04 08:08 -43.02682 172.53816 10616 ft 338 kts 198°
2026-05-04 08:10 -43.18095 172.47505 8847 ft 287 kts 198°
2026-05-04 08:11 -43.20041 172.46680 8350 ft 284 kts 199°
2026-05-04 08:11 -43.23805 172.45141 7331 ft 279 kts 198°
2026-05-04 08:11 -43.25639 172.44395 6822 ft 278 kts 198°
2026-05-04 08:12 -43.27480 172.43643 6324 ft 275 kts 198°
2026-05-04 08:12 -43.29306 172.42892 5858 ft 272 kts 198°
2026-05-04 08:12 -43.31131 172.42137 5391 ft 276 kts 198°
2026-05-04 08:12 -43.32964 172.41382 4999 ft 273 kts 198°
2026-05-04 08:13 -43.34736 172.40654 4899 ft 251 kts 198°
2026-05-04 08:13 -43.36360 172.39985 4811 ft 237 kts 198°
2026-05-04 08:13 -43.37898 172.39347 4706 ft 226 kts 198°
2026-05-04 08:13 -43.39373 172.38747 4622 ft 216 kts 194°
2026-05-04 08:14 -43.40824 172.38569 4430 ft 212 kts 178°
2026-05-04 08:14 -43.42300 172.38663 4126 ft 213 kts 178°
2026-05-04 08:14 -43.43299 172.38725 3920 ft 213 kts 178°
2026-05-04 08:16 -43.52574 172.41261 2040 ft 174 kts 129°
2026-05-04 08:16 -43.53205 172.42594 1835 ft 156 kts 114°
2026-05-04 08:16 -43.53548 172.43950 1624 ft 146 kts 101°
2026-05-04 08:17 -43.53659 172.45335 1430 ft 142 kts 88°
2026-05-04 08:17 -43.53523 172.46667 1241 ft 140 kts 73°
2026-05-04 08:17 -43.53150 172.47890 1048 ft 138 kts 59°
2026-05-04 08:17 -43.52573 172.48935 863 ft 137 kts 44°
2026-05-04 08:19 -43.48505 172.53718 106 ft 19 kts 72°
2026-05-04 08:19 -43.48469 172.53856 106 ft 11 kts 72°
2026-05-04 08:20 -43.48463 172.53951 107 ft 9 kts 113°
2026-05-04 08:20 -43.48510 172.53988 107 ft 6 kts 191°
2026-05-04 08:20 -43.48549 172.53945 109 ft 8 kts 221°
2026-05-04 08:20 -43.48598 172.53887 109 ft 10 kts 220°
2026-05-04 08:21 -43.48657 172.53819 108 ft 12 kts 219°
2026-05-04 08:21 -43.48718 172.53749 109 ft 11 kts 220°
2026-05-04 08:21 -43.48768 172.53690 107 ft 8 kts 220°
2026-05-04 08:21 -43.48803 172.53680 109 ft 6 kts 144°
2026-05-04 08:22 -43.48835 172.53732 108 ft 7 kts 130°
2026-05-04 08:22 -43.48857 172.53768 108 ft 3 kts 130°
2026-05-04 08:24 -43.48867 172.53785 109 ft 0 kts 130°